Погода в Жабоатан-дус-Гуарарапес

Бразилия     8°10′46″S   34°56′49″W
В апреле 2022 года жителям России запретили посещать сайт meteo.paraplan.net по решению Генеральной прокуратуры. Аудитория сайта уменьшилась в 10 раз. Владельцы сайта не видят смысла в поддержке погодного сервера в таких условиях. Сайт будет закрыт в октябре.
темп.,
°C
ветер,
м/с
пор.,
м/с
влажн.,
%
обл.,
%
осадки,
мм/ч
давл.,
гПа
погр.,
м
2 октября, вс
вс200:00+22юв24864 0.3 1016224
03:00+21ююв23846 0.4 1015201
06:00+22ююз238114 0.0 1017231
09:00+27юв556362 0.1 10171307
12:00+28юв666335 0.2 10161304
15:00+25вюв567633 1.7 1014770
18:00+23вюв368236 0.8 1015269
21:00+22юв238320 0.9 1017209
3 октября, пн
пн300:00+22ююв348217 0.1 1016234
03:00+21ююв348065 0.4 1016162
06:00+23ююв367881 0.3 1017268
09:00+27юв555728 0.4 10171311
12:00+28юв655519 0.1 10161526
15:00+27юв555821 0.1 10141334
18:00+23ююв35736 0.0 1015310
21:00+23юв238216 0.0 1016184
4 октября, вт
вт400:00+23юв248542 0.3 1015201
03:00+24вюв378040 0.6 1014310
06:00+24вюв378083 0.3 1015359
09:00+27вюв466892 0.7 1016910
12:00+29вюв565759 0.2 10141415
15:00+28вюв4559100 0.3 10131138
18:00+24юв358295 0.1 1014234
21:00+23юв2588100 0.4 1015190
5 октября, ср
ср500:00+23вюв238899 0.3 1013111
03:00+24в37842 0.8 1012278
06:00+25вюв378095 0.2 1014326
09:00+29вюв465287 0.3 10151276
12:00+30вюв665479 0.0 10141335
15:00+28вюв56635 0.0 10121146
18:00+25вюв368319 0.0 1014284
21:00+24вюв34865 0.1 1016230
6 октября, чт
чт600:00+23в23895 0.5 1015149
03:00+23в238927 1.2 1013127
06:00+24в268619 0.4 1015363
09:00+27всв577124 1.1 10161041
12:00+29в576210 0.4 10141245
15:00+28в566514 0.5 10131123
18:00+24в34844 0.3 1014188
21:00+24в24895 0.5 1015188